Weather History for Elefsis, Greece

Change the Weather History Date:

Wednesday, August 6, 2014

  Actual Average Record
Temperature  
Mean Temperature 82 °F -  
Max Temperature 94 °F 88 °F 104 °F (2002)
Min Temperature 71 °F 70 °F 68 °F (2007)
Cooling Degree Days 18    
Growing Degree Days 32 (Base 50)    
Moisture  
Dew Point 55 °F    
Average Humidity 41    
Maximum Humidity 73    
Minimum Humidity 16    
Precipitation  
Precipitation 0.12 in - - ()
Sea Level Pressure  
Sea Level Pressure 29.68 in    
Wind  
Wind Speed 5 mph ()    
Max Wind Speed 18 mph    
Max Gust Speed 34 mph    
Visibility 6.2 miles    
Events Rain , Thunderstorm    
Averages and records for this station are not official NWS values.
T = Trace of Precipitation, MM = Missing Value Source: Averaged Metar Reports

Daily Weather History Graph

Daily Weather History Graph

Search for Another Location

Airport:

Trip Planner

Search our weather history database for the weather conditions in past years. The results will help you decide how hot, cold, wet, or windy it might be!

Date:

Astronomy

Aug. 06, 2014 Rise Set
Actual Time 6:32 AM EEST 8:30 PM EEST
Civil Twilight 6:03 AM EEST 8:58 PM EEST
Nautical Twilight 5:28 AM EEST 9:33 PM EEST
Astronomical Twilight 4:50 AM EEST 10:11 PM EEST
Moon 4:27 PM EEST (8/6) 1:52 AM EEST (8/6)
Length of Visible Light 14h 55m
Length of Day
13h 57m
Waxing Gibbous, 74% of the Moon is Illuminated
Aug 6
Waxing Gibbous
Aug 10
Full
Aug 17
Last Quarter
Aug 25
New
Sep 2
First Quarter

Hourly Weather History & Observations

Time (EEST) Temp. Heat Index Dew Point Humidity Pressure Visibility Wind Dir Wind Speed Gust Speed Precip Events Conditions
12:00 AM 81 °F - 58 °F 35% 29.73 in 6 mi Calm Calm - -   Scattered Clouds
12:20 AM 80.6 °F 81.1 °F 59.0 °F 48% 29.71 in 6.2 mi Calm Calm - N/A   Partly Cloudy
12:50 AM 80.6 °F - 51.8 °F 37% 29.71 in 6.2 mi North 5.8 mph - N/A   Partly Cloudy
1:50 AM 77.0 °F - 50.0 °F 39% 29.71 in 6.2 mi Calm Calm - N/A   Partly Cloudy
2:20 AM 77.0 °F - 50.0 °F 39% 29.71 in 6.2 mi Calm Calm - N/A   Partly Cloudy
2:50 AM 77.0 °F - 50.0 °F 39% 29.68 in 6.2 mi Calm Calm - N/A   Partly Cloudy
3:00 AM 77 °F - 50 °F 28% 29.70 in 6 mi Calm Calm - -   Scattered Clouds
3:20 AM 77.0 °F - 50.0 °F 39% 29.68 in 6.2 mi Calm Calm - N/A   Partly Cloudy
3:50 AM 77.0 °F - 50.0 °F 39% 29.68 in 6.2 mi Calm Calm - N/A   Partly Cloudy
4:20 AM 77.0 °F - 50.0 °F 39% 29.68 in 6.2 mi Calm Calm - N/A   Partly Cloudy
4:50 AM 75.2 °F - 50.0 °F 41% 29.68 in 6.2 mi Calm Calm - N/A   Partly Cloudy
5:20 AM 77.0 °F - 50.0 °F 39% 29.68 in 6.2 mi Calm Calm - N/A   Partly Cloudy
5:50 AM 77.0 °F - 50.0 °F 39% 29.68 in - Calm Calm - N/A   Clear
6:00 AM 76 °F - 50 °F 29% 29.69 in 6 mi Calm Calm - -  
6:20 AM 78.8 °F - 50.0 °F 36% 29.68 in - Calm Calm - N/A   Clear
6:50 AM 77.0 °F - 50.0 °F 39% 29.68 in - Calm Calm - N/A   Clear
7:20 AM 75.2 °F - 50.0 °F 41% 29.68 in - Calm Calm - N/A   Clear
7:50 AM 78.8 °F - 51.8 °F 39% 29.68 in - Calm Calm - N/A   Clear
8:20 AM 84.2 °F - 50.0 °F 30% 29.68 in - North 4.6 mph - N/A   Clear
8:50 AM 86.0 °F - 50.0 °F 29% 29.68 in - SSE 2.3 mph - N/A   Clear
9:00 AM 85 °F - 50 °F 20% 29.70 in 6 mi SSE 2.3 mph - -  
9:20 AM 86.0 °F - 51.8 °F 31% 29.68 in - NW 5.8 mph - N/A   Clear
9:50 AM 87.8 °F 86.1 °F 55.4 °F 33% 29.68 in - West 4.6 mph - N/A   Clear
10:20 AM 87.8 °F 87.6 °F 60.8 °F 40% 29.68 in - SSE 9.2 mph - N/A   Clear
10:50 AM 89.6 °F 87.3 °F 53.6 °F 29% 29.68 in - SSW 9.2 mph - N/A   Clear
11:20 AM 91.4 °F 89.9 °F 57.2 °F 31% 29.68 in - SSW 10.4 mph - N/A   Clear
11:50 AM 91.4 °F 91.4 °F 60.8 °F 36% 29.68 in 6.2 mi SSW 10.4 mph - N/A   Partly Cloudy
12:00 PM 91 °F - 61 °F 26% 29.68 in 6 mi SSW 10.4 mph - -   Scattered Clouds
12:20 PM 91.4 °F 89.9 °F 57.2 °F 31% 29.65 in 6.2 mi South 12.7 mph - N/A   Scattered Clouds
12:50 PM 93.2 °F 90.8 °F 53.6 °F 26% 29.65 in 6.2 mi SSW 10.4 mph - N/A   Scattered Clouds
1:20 PM 93.2 °F - 51.8 °F 24% 29.65 in 6.2 mi SSW 10.4 mph - N/A   Partly Cloudy
1:50 PM 95.0 °F - 51.8 °F 23% 29.65 in 6.2 mi SSW 9.2 mph - N/A   Partly Cloudy
2:20 PM 93.2 °F - 51.8 °F 24% 29.62 in 6.2 mi SSW 11.5 mph - N/A   Scattered Clouds
2:50 PM 93.2 °F - 51.8 °F 24% 29.62 in 6.2 mi SSW 11.5 mph - N/A   Scattered Clouds
3:00 PM 93 °F - 52 °F 16% 29.63 in 6 mi SSW 11.5 mph - -   Scattered Clouds
3:20 PM 89.6 °F 87.3 °F 53.6 °F 29% 29.62 in 6.2 mi South 10.4 mph - N/A   Scattered Clouds
3:50 PM 91.4 °F - 51.8 °F 26% 29.62 in 6.2 mi SSW 8.1 mph - N/A   Mostly Cloudy
4:20 PM 89.6 °F 87.3 °F 53.6 °F 29% 29.62 in 6.2 mi South 8.1 mph - N/A   Mostly Cloudy
4:50 PM 87.8 °F 87.6 °F 60.8 °F 40% 29.65 in 6.2 mi South 10.4 mph - N/A Rain , Thunderstorm Light Thunderstorms and Rain
5:20 PM 80.6 °F 82.3 °F 64.4 °F 58% 29.68 in 6.2 mi WSW 15.0 mph 34.5 mph N/A Rain , Thunderstorm Light Thunderstorms and Rain
5:50 PM 77.0 °F - 62.6 °F 61% 29.71 in 6.2 mi NW 12.7 mph - N/A Rain , Thunderstorm Light Thunderstorms and Rain
6:00 PM 77 °F - 63 °F 52% 29.71 in 6 mi NW 12.7 mph - - Rain , Thunderstorm Thunderstorms and Rain
6:20 PM 75.2 °F - 59.0 °F 57% 29.71 in 6.2 mi NNW 17.3 mph - N/A Rain , Thunderstorm Light Thunderstorms and Rain
6:50 PM 71.6 °F - 62.6 °F 73% 29.71 in 6.2 mi NNW 12.7 mph 25.3 mph N/A   Overcast
7:20 PM 71.6 °F - 62.6 °F 73% 29.74 in 6.2 mi NNW 13.8 mph 25.3 mph N/A   Overcast
7:50 PM 73.4 °F - 60.8 °F 65% 29.71 in 6.2 mi NNW 15.0 mph 26.5 mph N/A   Mostly Cloudy
8:20 PM 73.4 °F - 59.0 °F 61% 29.68 in 6.2 mi NW 18.4 mph - N/A   Mostly Cloudy
8:50 PM 75.2 °F - 59.0 °F 57% 29.68 in 6.2 mi WNW 11.5 mph - N/A   Mostly Cloudy
9:00 PM 74 °F - 59 °F 50% 29.68 in 6 mi WNW 11.5 mph - -   Partly Cloudy
9:20 PM 75.2 °F - 59.0 °F 57% 29.68 in 6.2 mi WNW 10.4 mph - N/A   Mostly Cloudy
9:50 PM 73.4 °F - 59.0 °F 61% 29.68 in 6.2 mi WNW 15.0 mph - N/A   Scattered Clouds
10:20 PM 73.4 °F - 59.0 °F 61% 29.68 in 6.2 mi NW 15.0 mph - N/A   Partly Cloudy
10:50 PM 73.4 °F - 57.2 °F 57% 29.68 in 6.2 mi NW 15.0 mph - N/A   Partly Cloudy
11:20 PM 73.4 °F - 57.2 °F 57% 29.65 in 6.2 mi WNW 11.5 mph - N/A   Partly Cloudy
11:50 PM 73.4 °F - 57.2 °F 57% 29.65 in 6.2 mi NW 10.4 mph - N/A   Partly Cloudy